This demonstration page uses our WeatherBlox Daily Observations layout. Learn more.

Left ArrowRight Arrow

34.16533, -84.80231

Hourly Observations for October 28, 2020

Temp ( °F °C ) Dew Point ( °F °C ) Humidity (%) Winds ( mph kmh ) Pressure ( in mb ) Visibility ( mi km ) Precip ( " mm )
12:53 am 00:53 Cloudy 70 21.1 66 18.9 87 87 E 3 6 30.10 1019 10 16 0.00 0.00
1:43 am 01:43 Cloudy 70 21.1 65 18.3 84 84 VRB 3 6 30.09 1019 10 16 0.00 0.00
1:53 am 01:53 Cloudy 70 21.1 65 18.3 84 84 E 5 7 30.07 1018 10 16 0.00 0.00
2:53 am 02:53 Cloudy with Rain 70 21.1 66 18.9 87 87 E 3 6 30.07 1018 8 13 0.01 0.25
3:40 am 03:40 Cloudy with Light Rain 69 20.6 67 19.4 93 93 ENE 5 7 30.07 1018 3 4 0.06 1.52
3:53 am 03:53 Cloudy with Rain 69 20.6 67 19.4 93 93 NE 3 6 30.04 1017 3 4 0.09 2.29
4:16 am 04:16 Cloudy with Rain 69 20.6 67 19.4 93 93 ENE 3 6 30.06 1018 3 5 0.14 3.56
4:39 am 04:39 Cloudy with Light Rain 69 20.6 67 19.4 93 93 E 3 6 30.05 1018 5 8 0.15 3.81
4:53 am 04:53 Cloudy with Light Rain 70 21.1 67 19.4 90 90 VRB 5 7 30.02 1017 5 8 0.15 3.81
5:13 am 05:13 Cloudy 70 21.1 67 19.4 90 90 ESE 3 6 30.03 1017 8 13 0.01 0.25
5:25 am 05:25 Cloudy 70 21.1 67 19.4 90 90 VRB 6 9 30.03 1017 8 13 0.01 0.25
5:53 am 05:53 Cloudy with Rain 71 21.7 68 20 90 90 VRB 5 7 30.02 1017 4 6 0.04 1.02
6:28 am 06:28 Cloudy 71 21.7 68 20 90 90 SE 3 6 30.04 1017 10 16 0.01 0.25
6:53 am 06:53 Cloudy 71 21.7 68 20 90 90 ESE 5 7 30.02 1017 10 16 0.01 0.25
7:21 am 07:21 Cloudy 71 21.7 68 20 90 90 SE 5 7 30.04 1017 10 16 0.00 0.00
7:53 am 07:53 Cloudy 72 22.2 69 20.6 91 91 Calm 30.03 1017 10 16 0.00 0.00
9:53 am 09:53 Cloudy 73 22.8 70 21.1 90 90 Calm 30.05 1018 10 16 0.00 0.00
10:53 am 10:53 Cloudy 74 23.3 70 21.1 88 88 VRB 6 9 30.05 1018 9 14 0.00 0.00
11:53 am 11:53 Cloudy 74 23.3 71 21.7 91 91 SE 3 6 30.04 1017 7 11 0.00 0.00
12:53 pm 12:53 Cloudy with Mist and Fog 76 24.4 72 22.2 88 88 ESE 5 7 30.03 1017 4 6 0.00 0.00
1:08 pm 13:08 Cloudy 75 23.9 71 21.7 88 88 Calm 30.03 1017 9 14 0.00 0.00
1:53 pm 13:53 Cloudy 76 24.4 71 21.7 85 85 SSE 8 13 30.00 1016 10 16 0.00 0.00
2:05 pm 14:05 Cloudy 76 24.4 71 21.7 85 85 SSE 7 11 30.00 1016 10 16 0.00 0.00
2:39 pm 14:39 Cloudy 76 24.4 71 21.7 85 85 ESE 5 7 29.98 1015 10 16 0.00 0.00
2:53 pm 14:53 Cloudy 76 24.4 71 21.7 85 85 VRB 5 7 29.97 1015 10 16 0.00 0.00
2:59 pm 14:59 Cloudy 76 24.4 71 21.7 85 85 VRB 3 6 29.97 1015 10 16 0.00 0.00
3:35 pm 15:35 Cloudy 75 23.9 71 21.7 88 88 ESE 3 6 29.96 1015 10 16 0.00 0.00
3:43 pm 15:43 Cloudy 75 23.9 71 21.7 88 88 Calm 29.96 1015 10 16 0.00 0.00
3:53 pm 15:53 Cloudy 75 23.9 71 21.7 88 88 ESE 3 6 29.96 1015 10 16 0.00 0.00
4:53 pm 16:53 Cloudy 75 23.9 71 21.7 88 88 ESE 3 6 29.94 1014 10 16 0.00 0.00
5:53 pm 17:53 Cloudy 75 23.9 72 22.2 90 90 Calm 29.92 1013 8 13 0.01 0.25
6:36 pm 18:36 Mostly Cloudy 74 23.3 71 21.7 91 91 E 3 6 29.91 1013 7 11 0.00 0.00
6:53 pm 18:53 Partly Cloudy 74 23.3 71 21.7 91 91 VRB 3 6 29.90 1013 9 14 0.00 0.00
7:53 pm 19:53 Cloudy 74 23.3 71 21.7 91 91 E 5 7 29.90 1012 10 16 0.00 0.00
7:57 pm 19:57 Cloudy 74 23.3 71 21.7 91 91 E 3 6 29.90 1013 10 16 0.00 0.00
8:04 pm 20:04 Cloudy 74 23.3 71 21.7 91 91 E 3 6 29.90 1013 10 16 0.00 0.00
8:17 pm 20:17 Cloudy 74 23.3 71 21.7 91 91 E 5 7 29.90 1013 10 16 0.00 0.00
8:33 pm 20:33 Cloudy 74 23.3 71 21.7 91 91 VRB 5 7 29.89 1012 10 16 0.00 0.00
8:44 pm 20:44 Cloudy 74 23.3 71 21.7 91 91 VRB 6 9 29.89 1012 10 16 0.00 0.00
8:53 pm 20:53 Cloudy 74 23.3 71 21.7 91 91 E 5 7 29.88 1012 10 16 0.00 0.00
9:20 pm 21:20 Mostly Cloudy 74 23.3 70 21.1 88 88 VRB 3 6 29.88 1012 10 16 0.00 0.00
9:53 pm 21:53 Cloudy 74 23.3 70 21.1 88 88 ESE 5 7 29.86 1011 10 16 0.00 0.00
10:53 pm 22:53 Mostly Clear 74 23.3 70 21.1 88 88 ESE 6 9 29.83 1010 10 16 0.00 0.00
11:53 pm 23:53 Mostly Clear 74 23.3 70 21.1 88 88 ESE 6 9 29.82 1010 10 16 0.00 0.00

Powered by AerisWeather